Location: Lake Zurich
(42.1970°N, 88.0930°W)
Time: 09:10:15
(UTC-05:00)

Daily predictions for brighter satellites

Satellite Brightness Start Highest point End
(mag) Time Altitude Azimuth Time Altitude Azimuth Time Altitude Azimuth
COSMOS 2406 3.3 19:26:11 10° NNW 19:31:59 89° WSW 19:37:41 10° SSE
Cosmos 1934 Rocket 4.2 19:29:30 10° SSE 19:35:17 45° E 19:41:02 10° NNE
Tiangong 1 1.0 19:34:08 10° W 19:37:05 71° SSW 19:39:59 10° ESE
Cosmos 405 3.0 19:34:31 10° S 19:38:02 90° WSW 19:41:35 10° N
NOAA 12 4.4 19:33:21 10° S 19:38:40 77° WSW 19:44:00 10° NNW
RESURS DK-1 2.9 19:36:45 10° NNW 19:40:41 40° ENE 19:44:34 10° SE
Cosmos 1844 3.7 19:38:29 10° SSW 19:44:12 71° ESE 19:49:59 10° NNE
Abrixas 3.7 19:41:56 10° NW 19:44:28 28° NNE 19:47:01 10° ENE
USA 186 2.9 19:50:05 13° E 19:50:41 14° ENE 19:51:57 10° NE
Cosmos 1821 Rocket 4.1 19:50:35 10° S 19:56:59 86° E 20:03:22 10° N
Cosmos 1812 Rocket 3.5 19:53:50 10° S 19:58:14 80° E 20:02:39 10° N
USA 215 3.9 19:55:24 10° ENE 20:01:11 33° SE 20:06:56 10° S
Cosmos 2344 3.6 19:53:58 10° SSW 20:01:35 75° ESE 20:10:07 10° NE
Cosmos 1674 4.3 19:59:37 10° NNE 20:02:00 16° ENE 20:02:56 15° E
GP-B 4.3 19:58:45 10° SE 20:02:16 23° ENE 20:05:47 10° NNE
Spot 2 Rocket 3.5 19:57:41 10° SSE 20:02:44 68° ENE 20:07:49 10° N
CZ-2D R/B 3.5 19:59:15 10° SSE 20:02:58 48° ENE 20:06:43 10° N
Resurs 01 Rocket 1.5 20:00:36 10° SSE 20:04:59 75° ENE 20:09:26 10° N
Cosmos 1805 3.7 20:04:58 10° SSE 20:08:33 37° E 20:12:11 10° NNE
Cosmos 2150 Rocket 4.3 20:03:41 10° SSW 20:08:47 69° WNW 20:13:57 10° NNE
Cosmos 1076 Rocket 4.2 20:05:43 10° NNE 20:09:31 31° ENE 20:12:26 15° SE
Meteor 1-22 Rocket 4.4 20:07:28 10° S 20:13:16 88° W 20:19:20 10° N
Cosmos 1437 Rocket 3.8 20:09:34 10° SSW 20:13:28 50° WNW 20:17:27 10° N
Cosmos 1605 Rocket 4.0 20:08:47 10° S 20:14:57 66° E 20:21:14 10° NNE
ALOS 3.0 20:11:03 10° S 20:15:37 56° W 20:20:15 10° NNW
Cosmos 990 Rocket 4.2 20:11:08 10° SSW 20:16:22 78° WNW 20:21:39 10° NNE
Envisat 3.6 20:17:16 16° SE 20:20:46 37° ENE 20:25:25 10° N
Helios 1B rocket 2.7 20:17:23 10° NNE 20:21:21 43° E 20:25:16 10° S
In-Cosmos 22 4.0 20:16:14 10° N 20:21:36 79° E 20:26:52 10° SSE
Cosmos 1340 Rocket 4.4 20:19:16 10° NNE 20:22:06 18° ENE 20:22:07 18° ENE
Cosmos 1470 4.2 20:23:18 20° ENE 20:23:18 20° ENE 20:25:38 10° NE
SAR-Lupe-4 3.6 20:20:27 15° SSE 20:23:19 58° ENE 20:26:51 10° N
CZ-4B DEB 3.4 20:22:45 30° E 20:23:20 32° ENE 20:26:10 10° N
Cosmos 1844 Rocket 4.0 20:19:07 10° SW 20:24:28 43° WNW 20:29:50 10° NNE
Cosmos 1125 Rocket 3.7 20:22:23 10° S 20:27:17 45° ESE 20:32:14 10° NNE
Helios 1A 2.9 20:23:52 13° SSE 20:27:30 62° ENE 20:31:38 10° N
Cosmos 2123 Rocket 4.1 20:21:16 10° N 20:27:37 81° W 20:33:53 10° S
Cosmos 1048 Rocket 4.3 20:25:59 10° N 20:30:54 44° ENE 20:33:24 26° ESE
Lacrosse 4 Rocket 3.5 20:28:14 10° WSW 20:31:46 28° NW 20:35:18 10° N
Cosmos-2242 3.7 20:33:21 30° ESE 20:34:00 32° E 20:37:47 10° NNE
Cosmos 1833 Rocket 3.1 20:29:04 10° NNW 20:34:25 42° ENE 20:36:55 27° ESE
Geosat 3.9 20:29:27 10° NNE 20:34:31 89° ESE 20:39:33 10° SSW
USA 267 4.4 20:30:04 15° ENE 20:34:36 32° NNE 20:40:14 10° NW
Cosmos 2278 Rocket 2.3 20:30:37 10° SSW 20:36:17 79° WNW 20:42:00 10° NNE
Cosmos 1758 3.1 20:35:20 10° S 20:39:17 77° E 20:43:17 10° N
Spot 1 4.2 20:35:29 11° SSE 20:39:51 87° ENE 20:44:46 10° NNW
Lacrosse 5 2.1 20:36:06 10° SW 20:41:10 72° NW 20:46:15 10° NE
Cosmos 1733 4.4 20:43:27 26° NE 20:43:27 26° NE 20:45:41 10° NNE
SAR-Lupe-1 4.0 20:40:50 24° SSE 20:42:51 90° ESE 20:46:28 10° NNW
Cosmos 2061 Rocket 4.4 20:38:33 13° SSE 20:43:41 41° E 20:49:37 10° NNE
ERS-1 Rocket 3.7 20:43:28 31° E 20:44:33 34° ENE 20:49:05 10° N
Cosmos 1153 Rocket 4.5 20:39:14 10° S 20:45:36 78° E 20:52:01 10° N
H-2A R/B 4.5 20:42:21 10° SSW 20:45:53 34° W 20:49:30 10° NNW
SL-27 R/B 4.4 20:43:24 10° NW 20:46:33 29° WSW 20:49:43 10° SSW
Timation 2 Rocket 4.2 20:41:07 10° NNW 20:47:19 51° ENE 20:49:54 32° ESE
SPOT 5 4.4 20:47:10 22° ENE 20:47:23 22° ENE 20:51:23 10° NNE
Cosmos 1953 2.3 20:44:44 10° S 20:48:48 89° W 20:52:54 10° N
Cosmos 1939 Rocket 3.0 20:48:09 43° ESE 20:49:05 55° ENE 20:53:10 10° N
Cosmos 2297 3.6 20:44:10 10° S 20:49:47 63° ESE 20:55:28 10° NNE
Meteor 1-4 Rocket 2.4 20:46:57 10° S 20:50:26 83° W 20:53:55 10° N
Meteor 1-29 2.8 20:47:59 10° NNE 20:51:29 83° ESE 20:53:40 21° S
Cosmos 1818 3.5 20:47:33 10° NNW 20:53:02 85° ENE 20:55:28 34° SE
COSMOS 2487 2.6 20:50:48 10° N 20:54:09 56° NE 20:54:09 56° NE
Cosmos 1544 3.8 20:50:57 10° SSW 20:54:30 53° W 20:58:07 10° N
ATLAS 5 CENTAUR R/B 3.4 20:51:53 10° S 20:53:19 19° S 20:53:19 19° S
OE (NEXTSAT) 4.4 20:56:20 10° WSW 20:59:56 78° NNW 21:00:10 73° NNE
Cosmos 1269 Rocket 3.9 20:59:50 10° NNW 21:05:09 90° NE 21:07:14 38° SSE
Cosmos 2082 Rocket 2.1 21:00:17 10° NNW 21:06:01 82° ENE 21:08:04 42° SSE
Cosmos 1408 Rocket 3.6 21:04:26 10° N 21:08:55 80° W 21:10:24 42° S
Lacrosse 5 rocket 2.4 21:07:44 10° NNW 21:10:52 31° NNE 21:10:52 31° NNE
CZ-3B DEB 3.5 21:02:55 10° WSW 21:12:12 45° NW 21:16:08 13° NE
Cosmos 1459 Rocket 3.9 21:06:09 10° S 21:12:24 74° E 21:18:35 10° N
Tiangong 1 3.5 21:10:32 10° WSW 21:11:41 16° SW 21:11:41 16° SW
Cosmos 1271 Rocket 3.2 21:14:48 53° NNE 21:14:48 53° NNE 21:17:58 10° NNE
Cosmos 2173 Rocket 3.8 21:10:13 13° S 21:15:43 76° E 21:21:59 10° N
Cosmos 1867 3.7 21:23:04 10° SW 21:28:30 75° WNW 21:34:01 10° NNE
ARGOS 3.8 21:29:20 40° NE 21:29:20 40° NE 21:33:33 10° N
MetOp-A 4.2 21:32:12 62° NE 21:32:12 62° NE 21:37:13 10° N
Cosmos 372 Rocket 4.4 21:29:10 10° SSW 21:34:13 61° WNW 21:39:20 10° NNE
Cosmos 1674 4.2 21:34:19 10° NNW 21:37:44 33° W 21:37:53 32° W
USA 215 3.4 21:37:59 10° NE 21:44:30 73° NW 21:51:00 10° WSW
Cosmos 2016 Rocket 3.9 21:45:35 55° SSW 21:47:05 85° W 21:53:17 10° N
H-2A R/B 3.3 21:55:19 32° NNE 21:55:19 32° NNE 21:58:27 10° N
Cosmos 1725 Rocket 4.1 21:54:40 64° NE 21:54:40 64° NE 21:59:57 10° N
CZ-3 Stage 3 3.9 21:43:59 10° W 22:03:09 37° SSW 22:03:54 37° SSW
BREEZE-M DEB (TANK) 3.9 22:00:56 10° WSW 22:05:26 89° NNW 22:24:27 10° ENE
Tsikada Rocket 4.0 22:00:26 10° N 22:05:56 72° N 22:05:56 72° N
MOS 1-B Rocket 4.5 22:14:35 76° ENE 22:14:36 76° ENE 22:21:47 10° N
USA 267 3.3 22:17:25 72° N 22:17:25 72° N 22:23:31 10° NW
Cosmos 1833 Rocket 4.2 22:13:23 10° NW 22:18:06 28° WSW 22:18:39 28° WSW
Lacrosse 5 4.1 22:21:01 10° WNW 22:24:56 22° NNW 22:26:33 19° N
SPOT 5 4.2 22:26:24 42° NW 22:26:24 42° NW 22:30:15 10° NNW
Terra 4.4 22:56:12 17° NNW 22:56:12 17° NNW 22:57:15 10° NNW
